TimeMDT,TemperatureF,Dew PointF,Humidity,Sea Level PressureIn,VisibilityMPH,Wind Direction,Wind SpeedMPH,Gust SpeedMPH,PrecipitationIn,Events,Conditions,WindDirDegrees,DateUTC
12:15 AM,47.5,14.4,27,30.39,10.0,NW,5.8,-,N/A,,Clear,320,2013-03-15 06:15:00
12:35 AM,46.6,14.9,28,30.39,10.0,NW,4.6,-,N/A,,Clear,320,2013-03-15 06:35:00
12:55 AM,47.5,14.9,27,30.38,10.0,Calm,Calm,-,N/A,,Clear,0,2013-03-15 06:55:00
1:15 AM,45.5,16.0,31,30.38,10.0,WNW,3.5,-,N/A,,Clear,290,2013-03-15 07:15:00
1:35 AM,43.7,16.5,34,30.38,10.0,Calm,Calm,-,N/A,,Clear,0,2013-03-15 07:35:00
1:55 AM,43.2,16.7,35,30.37,10.0,WSW,4.6,-,N/A,,Clear,250,2013-03-15 07:55:00
2:15 AM,41.7,17.4,38,30.37,10.0,North,3.5,-,N/A,,Clear,10,2013-03-15 08:15:00
2:55 AM,40.3,18.0,41,30.35,10.0,WSW,4.6,-,N/A,,Clear,240,2013-03-15 08:55:00
3:15 AM,41.4,17.8,39,30.35,10.0,WNW,5.8,-,N/A,,Clear,290,2013-03-15 09:15:00
3:35 AM,42.1,17.6,37,30.34,10.0,Calm,Calm,-,N/A,,Clear,0,2013-03-15 09:35:00
3:55 AM,40.8,17.4,39,30.34,10.0,Calm,Calm,-,N/A,,Clear,0,2013-03-15 09:55:00
4:15 AM,38.5,18.7,45,30.33,10.0,NW,3.5,-,N/A,,Clear,310,2013-03-15 10:15:00
4:35 AM,38.3,19.2,46,30.32,10.0,North,5.8,-,N/A,,Clear,10,2013-03-15 10:35:00
4:55 AM,38.5,19.2,46,30.32,10.0,NNW,4.6,-,N/A,,Clear,340,2013-03-15 10:55:00
5:15 AM,40.1,18.5,42,30.32,10.0,Calm,Calm,-,N/A,,Clear,0,2013-03-15 11:15:00
5:35 AM,42.4,18.1,38,30.33,10.0,Calm,Calm,-,N/A,,Clear,0,2013-03-15 11:35:00
5:55 AM,44.1,17.6,35,30.33,10.0,North,5.8,-,N/A,,Clear,350,2013-03-15 11:55:00
6:15 AM,43.9,17.6,35,30.32,10.0,NW,5.8,-,N/A,,Clear,320,2013-03-15 12:15:00
6:55 AM,41.5,18.5,40,30.31,10.0,NNW,9.2,-,N/A,,Clear,330,2013-03-15 12:55:00
7:15 AM,41.9,18.5,39,30.30,10.0,NNW,8.1,-,N/A,,Clear,330,2013-03-15 13:15:00
7:35 AM,42.6,18.1,37,30.31,10.0,NW,6.9,-,N/A,,Clear,310,2013-03-15 13:35:00
7:55 AM,41.5,18.5,40,30.31,10.0,NNW,8.1,-,N/A,,Clear,340,2013-03-15 13:55:00
8:15 AM,41.7,19.0,40,30.30,10.0,NNW,6.9,-,N/A,,Clear,330,2013-03-15 14:15:00
8:35 AM,43.7,18.9,37,30.29,10.0,NNW,9.2,-,N/A,,Clear,340,2013-03-15 14:35:00
9:55 AM,59.0,14.0,17,30.27,10.0,SW,17.3,23.0,N/A,,Clear,220,2013-03-15 15:55:00
10:15 AM,59.4,13.6,17,30.27,10.0,SSW,16.1,26.5,N/A,,Clear,200,2013-03-15 16:15:00
10:35 AM,60.3,13.1,16,30.25,10.0,SSW,19.6,26.5,N/A,,Clear,200,2013-03-15 16:35:00
10:55 AM,60.3,12.9,16,30.25,10.0,SSW,21.9,31.1,N/A,,Clear,210,2013-03-15 16:55:00
11:15 AM,60.8,12.7,15,30.24,10.0,SSW,23.0,34.5,N/A,,Clear,210,2013-03-15 17:15:00
11:35 AM,63.0,12.2,14,30.23,10.0,SSW,21.9,31.1,N/A,,Clear,210,2013-03-15 17:35:00
11:55 AM,64.2,12.0,13,30.22,10.0,SW,16.1,31.1,N/A,,Clear,220,2013-03-15 17:55:00
12:15 PM,66.4,11.8,12,30.23,10.0,WSW,21.9,29.9,N/A,,Clear,240,2013-03-15 18:15:00
12:35 PM,66.4,11.5,12,30.22,10.0,WSW,26.5,33.4,N/A,,Clear,240,2013-03-15 18:35:00
12:55 PM,67.5,11.3,11,30.21,10.0,SW,25.3,35.7,N/A,,Clear,230,2013-03-15 18:55:00
1:15 PM,68.0,11.3,11,30.20,10.0,SW,24.2,32.2,N/A,,Clear,230,2013-03-15 19:15:00
1:35 PM,68.0,10.9,11,30.20,10.0,WSW,19.6,28.8,N/A,,Clear,240,2013-03-15 19:35:00
1:55 PM,65.8,11.1,12,30.19,10.0,SW,19.6,27.6,N/A,,Clear,230,2013-03-15 19:55:00
2:15 PM,65.1,11.3,12,30.18,10.0,West,20.7,29.9,N/A,,Clear,260,2013-03-15 20:15:00
2:35 PM,63.9,10.9,13,30.17,10.0,WSW,23.0,31.1,N/A,,Clear,250,2013-03-15 20:35:00
2:55 PM,65.8,11.8,12,30.15,10.0,WSW,19.6,27.6,N/A,,Clear,240,2013-03-15 20:55:00
3:15 PM,65.7,11.7,12,30.15,10.0,SW,18.4,31.1,N/A,,Clear,220,2013-03-15 21:15:00
3:35 PM,65.3,11.8,12,30.15,10.0,WSW,20.7,29.9,N/A,,Clear,250,2013-03-15 21:35:00
3:55 PM,65.5,12.2,13,30.14,10.0,WSW,18.4,29.9,N/A,,Clear,240,2013-03-15 21:55:00
4:15 PM,66.0,12.2,12,30.14,10.0,WSW,10.4,24.2,N/A,,Clear,240,2013-03-15 22:15:00
4:35 PM,64.4,10.6,12,30.14,10.0,SW,16.1,31.1,N/A,,Clear,230,2013-03-15 22:35:00
4:55 PM,63.7,10.6,13,30.14,10.0,WSW,24.2,31.1,N/A,,Clear,250,2013-03-15 22:55:00
5:15 PM,63.9,11.3,13,30.13,10.0,WSW,16.1,32.2,N/A,,Clear,240,2013-03-15 23:15:00
5:35 PM,63.5,11.1,13,30.13,10.0,WSW,20.7,26.5,N/A,,Clear,250,2013-03-15 23:35:00
5:55 PM,63.0,10.4,13,30.12,10.0,SW,16.1,21.9,N/A,,Clear,230,2013-03-15 23:55:00
6:15 PM,61.9,10.9,14,30.12,10.0,SW,13.8,23.0,N/A,,Clear,230,2013-03-16 00:15:00
6:35 PM,59.9,12.0,15,30.12,10.0,WSW,18.4,26.5,N/A,,Clear,250,2013-03-16 00:35:00
6:55 PM,58.3,12.7,17,30.12,10.0,WSW,17.3,24.2,N/A,,Clear,240,2013-03-16 00:55:00
7:15 PM,57.2,13.5,18,30.13,10.0,SW,16.1,21.9,N/A,,Clear,230,2013-03-16 01:15:00
7:35 PM,56.3,14.7,19,30.13,10.0,WSW,15.0,20.7,N/A,,Clear,240,2013-03-16 01:35:00
7:55 PM,55.8,15.6,21,30.13,10.0,SW,15.0,20.7,N/A,,Clear,230,2013-03-16 01:55:00
8:15 PM,54.5,16.3,22,30.13,10.0,WSW,11.5,17.3,N/A,,Clear,240,2013-03-16 02:15:00
8:35 PM,53.6,16.0,23,30.14,10.0,West,8.1,-,N/A,,Clear,260,2013-03-16 02:35:00
8:55 PM,51.8,17.4,26,30.13,10.0,WSW,10.4,-,N/A,,Clear,240,2013-03-16 02:55:00
9:15 PM,50.0,18.5,29,30.14,10.0,SW,13.8,-,N/A,,Clear,230,2013-03-16 03:15:00
9:35 PM,50.0,19.0,29,30.14,10.0,WSW,8.1,-,N/A,,Clear,250,2013-03-16 03:35:00
9:55 PM,50.0,17.8,28,30.14,10.0,WNW,5.8,-,N/A,,Clear,290,2013-03-16 03:55:00
10:15 PM,47.5,19.4,33,30.14,10.0,WSW,4.6,-,N/A,,Clear,250,2013-03-16 04:15:00
10:35 PM,46.4,20.1,35,30.13,10.0,Calm,Calm,-,N/A,,Clear,0,2013-03-16 04:35:00
10:55 PM,45.7,18.1,33,30.14,10.0,West,3.5,-,N/A,,Clear,280,2013-03-16 04:55:00
11:15 PM,47.1,19.8,34,30.13,10.0,WNW,8.1,-,N/A,,Clear,290,2013-03-16 05:15:00
11:35 PM,45.3,20.5,37,30.13,10.0,Calm,Calm,-,N/A,,Clear,0,2013-03-16 05:35:00
11:55 PM,43.0,19.0,38,30.12,10.0,Calm,Calm,-,N/A,,Clear,0,2013-03-16 05:55:00